Regional Weather Roundup
Issued by NWS

Home | Current Version | Previous Version | Text Only | Print | Product List | Glossary On
Versions: 1 2 3 4 5 6 7 8 9 10 11 12 13 14 15 16 17 18 19 20 21 22 23 24 25 26 27 28 29 30 31 32 33 34 35 36 37 38 39 40 41 42 43 44 45 46 47 48 49 50
000
ASUS43 KDTX 190501
RWRMI
MICHIGAN HOURLY REGIONAL WEATHER ROUNDUP
NATIONAL WEATHER SERVICE DETROIT/PONTIAC MI
1200 AM EST SUN NOV 19 2017

NOTE: "FAIR" INDICATES FEW OR NO CLOUDS BELOW 12,000 FEET WITH NO
SIGNIFICANT WEATHER AND/OR OBSTRUCTION TO VISIBILITY.

MIZ047>049-052>055-059>063-066>070-074>076-081>083-190600-
SOUTHEAST LOWER MICHIGAN

CITY           SKY/WX    TMP DP  RH WIND       PRES   REMARKS
ADRIAN         CLOUDY    39  32  76 N16G25    29.57R WCI  30
ALMA           CLOUDY    37  34  92 NW12G17   29.60R WCI  29
ANN ARBOR      LGT RAIN  38  34  85 W18G28    29.53R WCI  28
BAD AXE        MIX PCPN  36  35  96 NW16G26   29.47R WCI  26
CARO           CLOUDY    37  33  84 NW20      29.51R WCI  27
DETROIT CITY   CLOUDY    46  34  62 NW14G23   29.48R
DETROIT        CLOUDY    39  33  79 NW20G28   29.50R WCI  29
FLINT          CLOUDY    37  33  85 NW20G25   29.54R WCI  27
GROSSE ILE     CLOUDY    38  34  85 NW16G25   29.49R WCI  29
HILLSDALE      CLOUDY    36  32  87 NW16G26   29.59R WCI  26
HOWELL         CLOUDY    37  33  84 NW15G25   29.55R WCI  28

CITY           SKY/WX    TMP DP  RH WIND       PRES   REMARKS
JACKSON        CLOUDY    38  32  79 NW16G26   29.59R WCI  29
LAMBERTVILLE   CLOUDY    40  35  82 NW13G23   29.55R WCI  33
LANSING        LGT RAIN  37  34  89 NW12G23   29.61R WCI  29
LAPEER         RAIN      36  34  92 NW14G22   29.49R WCI  27
MASON          CLOUDY    39  32  77 NW14G22   29.59R WCI  31
MONROE         CLOUDY    40  33  75 NW17G25   29.52R WCI  31
MT. CLEMENS    CLOUDY    38  38  99 NW16G25   29.44R WCI  29
PONTIAC        CLOUDY    36  33  89 NW22G28   29.49R WCI  25
PORT HOPE        N/A     39  34  82 N13G21    29.44R WCI  31
PORT HURON     LGT RAIN  37  34  87 NW13      29.43R WCI  29
TRI CITIES     CLOUDY    38  31  76 NW22G30   29.56R WCI  27
MIDLAND        CLOUDY    38  32  77 NW13      29.56R WCI  30
TROY           MOCLDY    39  35  86 NW16G26   29.51R WCI  30
SAGINAW HB     CLOUDY    36  32  87 NW22G29   29.54R WCI  24
$$
MIZ043>046-050>051-056>058-064>065-071>073-077>080-190600-
SOUTHWEST LOWER MICHIGAN

CITY           SKY/WX    TMP DP  RH WIND       PRES   REMARKS
BATTLE CREEK   CLOUDY    39  32  76 NW14G22   29.65R WCI  31
BENTON HARBOR  CLOUDY    41  28  60 NW17G26   29.73R
BIG RAPIDS     LGT SNOW  33  31  92 NW14G23   29.63R WCI  24
COLDWATER      CLOUDY    39  34  82 NW18G25   29.64R WCI  29
FREMONT        CLOUDY    35  32  88 NW13      29.67R WCI  27
HOLLAND        CLOUDY    39  32  76 NW14G23   29.71R WCI  31
GRAND RAPIDS   LGT RAIN  37  35  92 NW18G26   29.66R WCI  27
IONIA          CLOUDY    38  32  79 NW15G22   29.62R WCI  29
KALAMAZOO      CLOUDY    39  30  70 NW15      29.66R WCI  31
LUDINGTON      CLOUDY    34  29  83 NW16G25   29.71R WCI  24
MARSHALL       CLOUDY    37  34  87 NW13G23   29.62R WCI  29
MOUNT PLEASANT CLOUDY    38  32  79 NW9G16    29.59R WCI  31
MUSKEGON       CLOUDY    37  31  78 NW18G25   29.71R WCI  27
SOUTH HAVEN    CLOUDY    40  31  71 N18G31    29.72R WCI  31
$$
MIZ016>042-190600-
NORTHERN LOWER MICHIGAN

CITY           SKY/WX    TMP DP  RH WIND       PRES   REMARKS
ALPENA         CLOUDY    36  32  85 NW10      29.52R WCI  28
BEAVER ISLAND  CLOUDY    34  29  83 NW15G25   29.66R WCI  24
BELLAIRE       CLOUDY    34  32  92 NW9       29.65R WCI  27
CADILLAC       CLOUDY    32  30  92 NW18G26   29.61R WCI  20
CHARLEVOIX     LGT RAIN  35  32  88 NW25G31   29.66S WCI  22
FRANKFORT      CLOUDY    35  29  80 NW13G25   29.70R WCI  26
GAYLORD        FLURRIES  32  26  78 VRB7G16   29.57R WCI  26
GRAYLING       CLOUDY    33  28  82 NW16G24   29.59R WCI  23
HARBOR SPRINGS CLOUDY    35  25  67 NW9G21    29.61S WCI  27
MANISTEE       MIX PCPN  34  29  82 NW18G24   29.70R WCI  23
OSCODA         CLOUDY    35  32  87 NW17G24   29.50R WCI  25
PELLSTON       CLOUDY    35  26  69 N16G26    29.61R WCI  25
ROGERS CITY    CLOUDY    37  28  68 NW20G26   29.55R WCI  27
TRAVERSE CITY  LGT SNOW  35  29  78 N15G26    29.66R WCI  25
$$
MIZ007>008-015-190600-
EASTERN UPPER MICHIGAN

CITY           SKY/WX    TMP DP  RH WIND       PRES   REMARKS
KINROSS        CLOUDY    33  27  78 NW18G24   29.58R WCI  22
MACKINAC ISLAN CLOUDY    35  28  75 NW20G29   29.60R WCI  24
NEWBERRY       CLOUDY    30  29  96 NW9G16    29.63R FOG     WCI  22
S. S. MARIE    CLOUDY    34  25  69 N10       29.59R WCI  26
MUNISING         N/A     33  30  88 NW23G37   29.72R WCI  21
$$
MIZ004>006-011>014-085-190600-
CENTRAL UPPER MICHIGAN

CITY           SKY/WX    TMP DP  RH WIND       PRES   REMARKS
MANISTIQUE     CLOUDY    31  23  72 NW14G25   29.67S WCI  21
ESCANABA       CLOUDY    31  25  78 NW14G24   29.74R WCI  21
MENOMINEE      CLOUDY    32  25  75 N14G20    29.77R WCI  22
SAWYER-GWINN   FLURRIES  26  22  84 NW15G26   29.74R WCI  14
$$
MIZ001>003-009>011-084-190600-
WESTERN UPPER MICHIGAN

CITY           SKY/WX    TMP DP  RH WIND       PRES   REMARKS
IRON MOUNTAIN  CLOUDY    28  20  71 NW20G26   29.75R WCI  15
HOUGHTON       FLURRIES  24  17  74 NW16G28   29.78R WCI  11
COPPER HARBOR    N/A     28  20  71 N23G30    29.78R WCI  14
$$

ABBREVIATIONS USED IN REMARKS
   TC - TEMPERATURE IN CELSIUS
  WCI - WIND CHILL INDEX
   HX - HEAT INDEX
  VSB - VISIBILITY




USA.gov is the U.S. government's official web portal to all federal, state and local government web resources and services.